Flag for U.S.A. Weather past 2 weeks in Lewiston, Idaho, U.S.A.

Now
39 °F

Passing clouds.


Feels Like: 39 °F
Forecast: 35 / 53 °F
Wind: No wind

Location: Lewiston-Nez Perce County Airport

Current Time: Feb 27, 2015 at 12:25:06 AM

Latest Report: Feb 26, 2015 at 11:56 PM


Visibility: 7 mi

Pressure: 29.91 "Hg

Humidity: 93%

Dew point: 37 °F

Location of LewistonLocation

Historic Weather in Lewiston — Graph

°F

Lewiston temperature yesterday

Maximum temperature yesterday: 45 °F (at 12:56 PM)
Minimum temperature yesterday: 38 °F (at 4:56 AM)
Average temperature yesterday: 41 °F

Past Weeks' High & Low Weather Summary

 TemperatureHumidityPressure
High62 °F (Feb 12, 3:56 PM)100% (Feb 14, 6:56 AM)30.55 "Hg (Feb 14, 6:56 AM)
Low21 °F (Feb 23, 6:56 AM)22% (Feb 22, 2:56 PM)29.92 "Hg (Feb 26, 10:56 PM)
Average42 °F70%30.29 "Hg
* Reported Feb 11 10:56 PM — Feb 26 10:56 PM, Lewiston, Weather by CustomWeather, © 2015

Note: Actual official high and low records may vary slightly from our data, if they occured in-between our weather recording intervals... More about our weather records

Advertising

Lewiston weather history for previous 24 hours

 ConditionsComfort  
Time TempWeatherWind HumidityBarometerVisibility
10:56 PM
Thu, Feb 26
40 °FOvercast.No wind93%29.92 "Hg9 mi
9:56 PM41 °FOvercast.3 mph89%29.95 "Hg9 mi
8:56 PM43 °FOvercast.3 mph82%29.97 "Hg10 mi
7:56 PM43 °FMostly cloudy.No wind82%29.98 "Hg10 mi
6:56 PM42 °FOvercast.3 mph85%29.99 "Hg10 mi
5:56 PM43 °FOvercast.3 mph86%30.01 "Hg10 mi
4:56 PM44 °FOvercast.3 mph76%30.03 "Hg10 mi
3:56 PM44 °FOvercast.3 mph79%30.04 "Hg10 mi
2:56 PM45 °FMostly cloudy.5 mph76%30.05 "Hg10 mi
1:56 PM45 °FOvercast.3 mph76%30.08 "Hg10 mi
12:56 PM45 °FCloudy.No wind82%30.10 "Hg10 mi
11:56 AM43 °FCloudy.3 mph86%30.13 "Hg10 mi
10:56 AM41 °FFog.No wind93%30.16 "Hg6 mi
9:56 AM40 °FLight rain. Mostly cloudy.3 mph89%30.18 "Hg10 mi
8:56 AM39 °FLight rain. Mostly cloudy.3 mph93%30.17 "Hg10 mi
8:04 AM38 °FLight rain. Fog.3 mph100%30.15 "Hg6 mi
7:56 AM39 °FLight rain. Mostly cloudy.5 mph93%30.17 "Hg8 mi
6:56 AM39 °FLight rain. Mostly cloudy.No wind89%30.17 "Hg10 mi
6:04 AM39 °FLight rain. Mostly cloudy.No wind89%30.15 "Hg10 mi
5:56 AM38 °FLight rain. Mostly cloudy.No wind93%30.18 "Hg10 mi
4:56 AM38 °FLight rain. Mostly cloudy.3 mph97%30.16 "Hg10 mi
3:56 AM39 °FLight rain. Mostly cloudy.3 mph93%30.17 "Hg10 mi
2:56 AM40 °FLight rain. Overcast.3 mph93%30.17 "Hg8 mi
1:56 AM40 °FLight rain. Fog.3 mph97%30.18 "Hg5 mi
12:56 AM41 °FLight rain. Mostly cloudy.6 mph89%30.18 "Hg8 mi
Weather by CustomWeather, © 2015

See weather overviewHow to use our weather pages